Location: *
(11.2500°N, 85.8667°W)
Time: 04:48:59
(UTC+00:00)

Daily predictions for brighter satellites

Satellite Brightness Start Highest point End
(mag) Time Altitude Azimuth Time Altitude Azimuth Time Altitude Azimuth
NOSS 2-1 (C) 4.2 00:09:03 10° SW 00:13:15 48° WNW 00:16:42 10° N
NOSS 2-1 (D) 4.4 00:12:48 10° SW 00:16:52 41° WNW 00:20:16 10° N
Cosmos 1939 Rocket 4.0 00:13:45 10° SE 00:16:55 22° ENE 00:17:39 21° ENE
CZ-2D R/B 4.4 00:14:33 10° SE 00:17:36 23° ENE 00:18:10 22° ENE
FALCON 9 DEB 3.1 00:17:02 10° S 00:19:04 29° SE 00:19:07 29° ESE
Cosmos 1544 3.9 00:18:33 20° NE 00:20:17 29° E 00:23:30 10° SSE
Cosmos 2297 3.7 00:15:25 10° NNW 00:21:03 87° WSW 00:26:40 10° SSE
Cosmos 2151 Rocket 3.9 00:18:08 10° NNE 00:22:16 41° E 00:26:25 10° SSE
Cosmos 2266 Rocket 4.3 00:18:21 10° S 00:24:44 75° W 00:31:08 10° N
STARLINK 1044 4.3 00:23:21 10° S 00:25:27 21° SE 00:25:27 21° SE
Star 48B 4.0 00:23:53 10° WNW 00:25:57 55° SSW 00:26:48 29° SE
Starlink Launch 2 leader 2.7 00:26:08 10° SSW 00:28:22 45° SE 00:28:22 45° SE
NOAA 11 4.5 00:24:26 10° SE 00:29:32 42° ENE 00:34:38 10° N
Starlink Launch 2 trailer 2.6 00:29:46 10° SSW 00:31:55 52° SSE 00:31:55 52° SSE
Meteor 2-19 Rocket 4.4 00:29:19 10° S 00:35:21 67° E 00:41:24 10° NNE
ATLAS 3B CENTAUR R/B 3.2 00:30:05 10° WSW 00:35:33 67° NNW 00:43:20 24° NE
BREEZE-M TANK 4.2 00:31:11 10° SW 00:35:46 81° NW 00:51:03 15° NE
Cosmos 405 4.5 00:32:55 10° SSW 00:36:12 36° W 00:39:28 10° NNW
Meteor 1-12 Rocket 4.2 00:32:38 10° N 00:38:15 60° E 00:43:49 10° SSE
Cosmos 1867 3.8 00:34:08 10° N 00:39:16 44° ENE 00:44:22 10° SE
CZ-3B R/B 3.4 00:37:02 10° NW 00:40:21 18° N 00:41:44 17° NNE
S3M 4.0 00:35:02 10° N 00:41:09 84° W 00:47:15 10° S
Atlas Centaur 2 3.9 00:34:26 10° WNW 00:41:50 49° SSW 00:50:00 10° SE
STARLINK 1058 4.4 00:40:31 10° S 00:43:23 30° SE 00:43:23 30° SE
CZ-3 Stage 3 3.4 00:42:06 10° SW 00:45:15 77° SSE 00:47:53 33° ENE
STARLINK 1043 4.3 00:44:00 10° S 00:46:50 32° SE 00:46:50 32° SE
Okean 2 Rocket 4.3 00:44:30 10° NNW 00:48:47 44° W 00:53:04 10° SSW
STARLINK 1065 4.3 00:47:27 10° SSW 00:50:14 35° SSE 00:50:14 35° SSE
FUSE 4.1 00:45:57 10° WNW 00:51:17 70° SSW 00:54:05 28° SE
ASC 2 Rocket 4.3 00:45:45 10° WNW 00:51:58 82° NNE 00:57:50 25° ESE
Centaur AC-102 3.7 00:49:03 10° W 00:53:48 83° SSW 00:59:46 22° ESE
STARLINK 1063 4.2 00:51:04 10° SSW 00:53:46 37° SSE 00:53:46 37° SSE
Meteor 1-23 Rocket 4.4 00:49:35 10° SSW 00:55:16 72° W 01:00:48 11° N
Cosmos 1486 Rocket 4.4 00:50:44 10° S 00:55:29 42° ESE 00:55:29 42° ESE
ARIANE 5 R/B 3.4 00:34:33 10° W 00:56:58 57° S 00:58:58 33° SE
STARLINK 1064 4.2 00:54:31 10° SSW 00:57:09 38° S 00:57:09 38° S
Cosmos 1975 Rocket 3.1 00:56:11 10° S 00:59:50 57° SE 00:59:50 57° SE
STARLINK 1041 4.3 00:58:03 10° SSW 01:00:37 39° S 01:00:37 39° S
CZ-4 R/B 3.5 00:59:45 10° SSW 01:03:06 26° W 01:06:22 10° NW
IUS-18 SRM-1 4.3 01:03:11 10° WSW 01:04:12 13° SSW 01:04:12 13° SSW
ATLAS 5 CENTAUR R/B 2.7 00:59:56 10° W 01:04:24 67° SSW 01:23:02 10° ESE
STARLINK 1038 4.4 01:01:38 10° SSW 01:04:05 38° S 01:04:05 38° S
Cosmos 2369 Rocket 3.7 01:00:29 10° N 01:09:36 22° SE 01:11:33 10° SSE
YAOGAN 1 4.0 01:03:18 10° SSW 01:07:17 37° W 01:11:16 10° NNW
CZ-2C R/B 3.5 01:08:58 89° N 01:08:59 90° WNW 01:13:30 10° SSW
GPS 2-17 Rocket1 3.2 01:08:23 10° WSW 01:12:14 65° WSW 01:12:14 65° WSW
ADEOS Rocket 3.3 01:09:58 20° N 01:13:48 58° WNW 01:19:40 10° SSW
Iridium 4 Rocket 4.0 01:16:26 10° S 01:21:10 57° SSE 01:21:10 57° SSE
Cosmos 1943 Rocket 2.4 01:21:30 10° NNW 01:27:00 67° WSW 01:32:28 10° S
Cosmos 2315 Rocket 4.1 01:24:46 24° NNW 01:28:44 74° W 01:34:55 10° S
ARIANE 5 R/B 3.8 01:21:08 10° W 01:28:58 44° S 01:29:15 43° S
CZ-3 Stage 3 3.3 01:28:42 10° WNW 01:41:42 18° ESE 01:48:12 10° ESE
USA 267 3.8 01:34:26 43° NNW 01:34:26 43° NNW 01:38:43 10° NNW
ARIANE 42L R/B 4.5 01:34:11 10° WSW 01:37:17 25° SW 01:37:17 25° SW
Ariane Rocket 4.4 01:43:12 10° S 01:46:25 34° SW 01:46:25 34° SW
CZ-3B R/B 4.4 08:28:56 36° S 08:28:56 36° S 08:36:53 10° SE
Lacrosse 5 4.4 09:05:06 16° SE 09:05:06 16° SE 09:06:11 10° SE
H-2A ROCKET BODY 4.4 09:02:23 73° NW 09:04:35 87° NNE 10:25:10 10° ESE
Delta 2 Rocket 4.4 09:46:31 46° SSW 09:46:31 46° SSW 09:52:12 10° SE
GPS 2-17 Rocket1 4.4 09:52:03 32° SSE 09:52:03 32° SSE 09:55:03 10° SE
CZ-4B R/B 3.7 09:56:26 49° ENE 09:57:12 56° ESE 10:01:37 10° S
Cosmos 1140 Rocket 4.2 10:00:43 31° NNE 10:02:55 51° ENE 10:07:59 10° SSE
SL-16 R/B 2.6 10:05:53 47° SW 10:05:53 47° SW 10:10:29 10° S
Cosmos 44 Rocket 4.2 10:00:43 10° S 10:05:31 48° ESE 10:10:14 10° NE
Meteor 1-25 Rocket 4.0 10:00:13 10° SSW 10:05:44 71° W 10:06:05 69° WNW
CZ-4C R/B 3.2 10:05:57 28° NNW 10:10:52 80° ENE 10:19:18 10° SSE
Cosmos 1602 4.2 10:07:06 10° S 10:10:09 53° SSE 10:10:09 53° SSE
Cosmos 1634 Rocket 3.9 10:09:08 10° S 10:15:22 86° W 10:21:34 10° N
OAO 1 4.4 10:15:02 60° WNW 10:16:03 80° SW 10:21:34 10° SE
Skynet4D Del rocket 4.2 10:15:23 40° NNW 10:16:44 47° NNE 10:22:34 10° E
Cosmos 407 Rocket 3.5 10:18:32 54° WNW 10:19:21 61° WSW 10:24:34 10° S
Meteor PRIRODA 3.7 10:19:28 44° NNE 10:20:32 75° ESE 10:24:10 10° S
Delta 202 4.0 10:23:43 41° NW 10:24:41 45° N 10:29:44 10° ENE
CZ-2C R/B 4.5 10:31:25 12° SW 10:31:25 12° SW 10:31:47 10° SW
Meteor 1-14 Rocket 4.2 10:22:39 10° SSW 10:28:28 66° W 10:34:22 10° N
Cosmos 1461 3.1 10:33:01 28° NNW 10:35:20 80° ENE 10:39:55 10° SSE
Cosmos 332 Rocket 3.8 10:36:49 10° SSW 10:41:36 55° WNW 10:46:24 10° N
Lacrosse 5 3.9 10:44:21 12° WSW 10:44:21 12° WSW 10:45:40 10° SW
Cosmos 1331 Rocket 4.1 10:39:20 10° SSW 10:44:14 46° WNW 10:49:10 10° N
EP 3 4.4 10:42:12 10° SSW 10:45:38 88° ESE 10:48:13 10° NNE
Aurora 2 Rocket 4.4 10:38:38 11° WSW 10:46:29 88° SSE 10:57:12 10° ENE
NOSS 3-2 (A) 3.7 10:42:16 10° SW 10:47:12 35° WNW 10:52:22 10° N
ASTRO E2 2.5 10:44:57 23° WSW 10:47:22 81° NNW 10:51:21 10° ENE
Cosmos 1869 Rocket 4.5 10:44:55 10° SW 10:48:17 26° W 10:48:17 26° W
Cosmos 1844 Rocket 2.8 10:43:18 10° SSW 10:48:39 47° WNW 10:54:00 10° N
Cosmos 1703 Rocket 3.5 10:46:24 12° NNW 10:50:22 63° W 10:54:39 10° S
MOS 1-B 4.2 10:45:15 10° N 10:50:59 72° WNW 10:56:44 10° SSW
CZ-3 R/B 3.7 10:31:40 10° SW 10:51:42 42° SSE 10:57:43 10° E
MAQSAT/ARIANE V 4.3 09:55:05 10° W 10:52:00 69° S 10:56:55 10° ESE
FENGYUN 3A 3.7 10:47:05 10° NNE 10:52:27 85° ESE 10:57:49 10° S
Ariane H10 3.3 10:50:24 15° SW 10:52:36 41° SSE 11:00:29 10° E
METEOR-M 4.1 10:49:01 10° N 10:54:22 87° WNW 10:59:43 10° SSW
Cosmos 1484 Rocket 3.2 10:51:16 10° N 10:54:46 36° WNW 10:58:12 10° SW
CENTAUR R/B 2.1 10:52:17 10° SSW 10:57:36 82° WNW 11:03:29 10° NNE
Okean 1 3.3 10:53:59 10° N 10:57:57 82° E 11:01:57 10° S
Cosmos 1340 4.3 10:56:32 10° SW 10:58:13 17° WSW 10:58:13 17° WSW
Cosmos 1092 Rocket 4.0 10:53:20 10° NNW 10:59:18 57° W 11:05:18 10° S
Cosmos 1844 3.9 10:53:47 10° SSW 10:59:22 51° WNW 11:04:58 10° N
USA 238 DEB 4.4 10:53:57 10° WSW 10:59:24 27° WNW 11:04:54 10° N
USA 238 4.4 10:54:03 10° WSW 10:59:30 27° WNW 11:05:02 10° N
Cosmos 371 Rocket 4.3 10:57:22 10° SW 11:01:08 23° WNW 11:04:54 10° NNW
CZ-4B DEB 4.2 10:56:10 10° N 11:01:38 65° WNW 11:07:08 10° SSW
ERBS 2.8 11:00:45 10° SSW 11:04:01 61° ESE 11:07:17 10° NE
Cosmos 2084 Rocket 4.2 11:02:19 18° WNW 11:04:57 35° WSW 11:08:55 10° S
Cosmos 1536 3.5 11:06:25 10° S 11:10:25 59° E 11:14:24 10° NNE
Cosmos 1500 3.2 11:08:55 10° SSW 11:12:43 61° W 11:16:30 10° N
Okean O Rocket 1.5 11:08:43 10° N 11:13:07 74° WNW 11:17:33 10° SSW
SKYMED 2 4.0 11:08:54 10° SSE 11:13:12 65° ENE 11:17:28 10° N
ARIANE 44L R/B 4.0 11:12:13 10° WSW 11:15:16 19° S 11:17:05 10° SE
Palapa 6 Rocket 3.7 11:09:57 10° WSW 11:15:18 87° NNW 11:21:59 10° ENE
GPS 2-15 Rocket1 3.8 11:11:44 13° WNW 11:15:49 45° NNE 11:20:35 10° E
Okean 1-7 3.8 11:12:46 10° NNW 11:16:39 32° W 11:20:30 10° SSW
SJ-7 4.5 11:14:53 10° NNE 11:18:51 81° ESE 11:22:50 10° S
ALOS 2.7 11:14:46 10° N 11:19:06 39° WNW 11:23:25 10° SW
CZ-4B R/B 3.3 11:16:36 10° N 11:22:12 66° WNW 11:27:48 10° SSW
FALCON 9 DEB 2.1 11:22:39 10° NW 11:24:54 60° SW 11:27:09 10° SSE
STARLINK 1027 3.8 11:22:32 10° NNW 11:25:19 41° NE 11:28:06 10° SE
DELTA 2 R/B (1) 3.6 11:19:54 10° WSW 11:25:23 62° NW 11:30:52 10° NE
STARLINK 1028 3.8 11:22:44 10° NNW 11:25:29 42° NE 11:28:15 10° SE
STARLINK 1021 3.8 11:22:58 10° NNW 11:25:44 42° NE 11:28:32 10° SE
STARLINK 1019 3.8 11:23:10 10° NNW 11:25:58 43° NE 11:28:46 10° SE
STARLINK 1012 3.7 11:23:25 10° NNW 11:26:13 43° NE 11:29:01 10° SE
STARLINK 1010 3.7 11:23:39 10° NNW 11:26:27 43° NE 11:29:15 10° SE
STARLINK 1026 3.7 11:23:53 10° NNW 11:26:41 44° NE 11:29:29 10° SE
STARLINK 1013 3.7 11:24:05 10° NNW 11:26:53 44° NE 11:29:41 10° SE
STARLINK 1009 3.7 11:24:18 10° NNW 11:27:05 45° NE 11:29:53 10° SE
STARLINK 1015 3.6 11:24:31 10° NNW 11:27:19 45° NE 11:30:07 10° SE
STARLINK 1016 3.6 11:24:44 10° NNW 11:27:32 46° NE 11:30:22 10° SE
STARLINK 1008 3.6 11:24:55 10° NNW 11:27:43 46° NE 11:30:31 10° SE
STARLINK 1014 3.6 11:25:13 10° NNW 11:28:02 47° NE 11:30:51 10° SE
STARLINK 1025 3.6 11:25:26 10° NNW 11:28:15 47° NE 11:31:04 10° SE
STARLINK 1017 3.6 11:25:39 10° NNW 11:28:29 47° NE 11:31:18 10° SE
STARLINK 1023 3.5 11:25:52 10° NNW 11:28:41 48° NE 11:31:31 10° SE
STARLINK 1007 3.5 11:26:04 10° NNW 11:28:53 48° NE 11:31:42 10° SE
STARLINK 1048 3.5 11:26:18 10° NNW 11:29:07 49° NE 11:31:56 10° SE
Cosmos 1943 3.5 11:23:47 10° NNW 11:29:09 48° WSW 11:34:32 10° S
STARLINK 1049 3.5 11:26:30 10° NNW 11:29:20 49° NE 11:32:10 10° SE
STARLINK 1051 3.5 11:26:46 10° NNW 11:29:37 50° NE 11:32:27 10° SE
STARLINK 1037 3.4 11:26:56 10° NNW 11:29:46 50° NE 11:32:36 10° SE
STARLINK 1059 3.4 11:27:09 10° NNW 11:29:59 51° NE 11:32:49 10° SE
STARLINK 1057 3.4 11:27:26 10° NNW 11:30:18 51° NE 11:33:08 10° SE
STARLINK 1052 3.4 11:27:37 10° NNW 11:30:26 52° NE 11:33:17 10° SE
STARLINK 1068 3.4 11:27:53 10° NNW 11:30:44 53° NE 11:33:36 10° SE
STARLINK 1029 3.4 11:28:04 10° NNW 11:30:54 53° NE 11:33:44 10° SE
STARLINK 1060 3.3 11:28:19 10° NNW 11:31:10 53° NE 11:34:00 10° SE
STARLINK 1030 3.3 11:28:32 10° NNW 11:31:25 54° NE 11:34:17 10° SE
STARLINK 1034 3.3 11:28:41 10° NNW 11:31:33 54° NE 11:34:24 10° SE
STARLINK 1020 3.3 11:28:44 10° NNW 11:31:36 55° NE 11:34:27 10° SE
STARLINK 1040 3.0 11:29:17 10° NNW 11:32:10 64° NE 11:35:02 10° SE
STARLINK 1033 3.3 11:29:25 10° NNW 11:32:17 56° NE 11:35:09 10° SE
STARLINK 1031 3.2 11:29:38 10° NNW 11:32:29 57° NE 11:35:22 10° SE
STARLINK 1024 3.2 11:29:51 10° NNW 11:32:45 58° NE 11:35:39 10° SE
STARLINK 1035 3.2 11:30:04 10° NNW 11:32:57 58° NE 11:35:49 10° SE
STARLINK 1032 3.2 11:30:18 10° NNW 11:33:11 59° NE 11:36:03 10° SE
STARLINK 1011 3.2 11:30:28 10° NNW 11:33:22 59° NE 11:36:15 10° SE
STARLINK 1036 3.1 11:30:45 10° NNW 11:33:36 60° NE 11:36:29 10° SE
Cosmos 1515 3.7 11:30:07 10° N 11:33:56 82° W 11:37:46 10° S
STARLINK 1047 3.1 11:31:05 10° NNW 11:33:58 61° NE 11:36:50 10° SE
Centaur D-1A AC-32 3.1 11:34:45 10° W 11:41:48 39° NNW 11:45:15 10° NE
